Погода в Чувашах

Россия / Новосибирская область     56°23′51″N   78°48′52″E
темп.,
°C
ветер,
м/с
пор.,
м/с
влажн.,
%
обл.,
%
осадки,
мм/ч
давл.,
гПа
погр.,
м
3 марта, ср
ср301:00−16ю239794 0.1 101587
04:00−18ю239994 0.0 101437
07:00−19ююз249894 0.1 101596
10:00−17ююз369687 0.1 1015256
13:00−13ю479594 0.1 1015381
16:00−11ю4894100 0.1 1014457
19:00−12ю51193100 0.1 1014487
22:00−14ююз51393100 0.1 1014521
4 марта, чт
чт401:00−14ююз51293100 0.2 1013583
04:00−12ююз51294100 0.8 1011602
07:00−9ююз51294100 1.4 1011637
10:00−7ююз61392100 0.5 1010662
13:00−5ююз61293100 0.9 1009696
16:00−2ююз71295100 0.7 1007923
19:00−3ю61394100 1.7 1007890
22:00−2ююз71494100 1.1 10051095
5 марта, пт
пт501:00−3ююз71494100 1.9 1003926
04:00−2ююз71493100 0.6 1002921
07:00−2ююз61296100 1.6 1001849
10:00−4зюз61383100 1.9 1002819
13:00−6зюз61292100 2.0 1005658
16:00−6юз6118897 0.1 1007774
19:00−7юз6119398 0.4 1009972
22:00−7юз51291100 0.4 1010869
6 марта, сб
сб601:00−9юз41293100 0.4 1012487
04:00−8ююз51194100 0.2 1011529
07:00−6ююз51195100 0.8 1009635
10:00−3ююз71295100 1.1 10061042
13:00−4ююз71394100 2.8 1004980
16:00−2ююз71495100 1.3 10031120
19:00−2юз71594100 2.4 10011254
22:00−2зюз71593100 0.8 10011139
7 марта, вс
вс701:00−4зюз71386100 1.0 10051016
04:00−9зюз51291100 0.1 1009607
07:00−12юз41095100 0.1 1012325
10:00−12юз3894100 0.0 1012282
13:00−8ююз3793100 0.0 1012366
16:00−6ююв4895100 0.9 1009523
19:00−2ююз61196100 2.8 1005891
22:00−1ююз71494100 1.0 10021030